Hayward, WI

6:35 PM CDT on April 24, 2017 (GMT -0500)
Sawyer County

Weather History for KHYR - March, 2013

Change the Weather History Date:

Tuesday, March 12, 2013

  Actual Average Record
Temperature  
Mean Temperature 24 °F -  
Max Temperature 28 °F 37 °F 66 °F (2016)
Min Temperature 18 °F 8 °F -15 °F (2009)
Degree Days  
Heating Degree Days 42    
Moisture  
Dew Point 14 °F    
Average Humidity 72    
Maximum Humidity 86    
Minimum Humidity 49    
Precipitation  
Precipitation 0.00 in - - ()
Sea Level Pressure  
Sea Level Pressure 29.91 in    
Wind  
Wind Speed 3 mph (NNW)    
Max Wind Speed 9 mph    
Max Gust Speed 16 mph    
Visibility 7 miles    
Events Snow    
Averages and records for this station are not official NWS values.
T = Trace of Precipitation, MM = Missing Value Source: NWS Daily Summary

Daily Weather History Graph

Daily Weather History Graph

Search for Another Location

Airport or City:

Trip Planner

Search our weather history database for the weather conditions in past years. The results will help you decide how hot, cold, wet, or windy it might be!

Date:

Astronomy

Mar. 12, 2013 Rise Set
Actual Time 7:23 AM CDT 7:07 PM CDT
Civil Twilight 6:53 AM CDT 7:37 PM CDT
Nautical Twilight 6:19 AM CDT 8:12 PM CDT
Astronomical Twilight 5:44 AM CDT 8:47 PM CDT
Moon 7:25 AM CDT (3/12) 8:30 PM CDT (3/12)
Length of Visible Light 12h 43m
Length of Day
11h 44m
New Moon, 1% of the Moon is Illuminated
Mar 12
New Moon
Mar 19
First Quarter
Mar 27
Full
Apr 2
Last Quarter
Apr 10
New

Hourly Weather History & Observations

Time (CDT) Temp. Windchill Dew Point Humidity Pressure Visibility Wind Dir Wind Speed Gust Speed Precip Events Conditions
12:53 AM 21.9 °F - 15.1 °F 75% 29.80 in 10.0 mi Calm Calm - N/A   Overcast
1:53 AM 21.9 °F - 15.1 °F 75% 29.81 in 10.0 mi Calm Calm - N/A   Overcast
2:53 AM 21.0 °F - 15.1 °F 78% 29.80 in 10.0 mi Calm Calm - N/A   Overcast
3:04 AM 21.2 °F - 15.8 °F 80% 29.75 in 10.0 mi Calm Calm - N/A   Overcast
3:43 AM 21.2 °F - 15.8 °F 80% 29.74 in 10.0 mi Calm Calm - N/A   Overcast
3:53 AM 21.0 °F - 15.1 °F 78% 29.80 in 10.0 mi Calm Calm - N/A   Overcast
4:53 AM 21.0 °F - 15.1 °F 78% 29.81 in 10.0 mi Calm Calm - N/A   Overcast
5:46 AM 21.2 °F - 15.8 °F 80% 29.76 in 6.0 mi Calm Calm - 0.00 in Snow Light Snow
5:53 AM 21.0 °F - 15.1 °F 78% 29.82 in 6.0 mi Calm Calm - 0.00 in Snow Light Snow
6:14 AM 19.4 °F 14.3 °F 15.8 °F 86% 29.77 in 5.0 mi Variable 3.5 mph - 0.00 in Snow Light Snow
6:53 AM 19.9 °F 13.4 °F 16.0 °F 85% 29.84 in 7.0 mi Variable 4.6 mph - 0.00 in Snow Light Snow
7:53 AM 19.9 °F - 16.0 °F 85% 29.85 in 6.0 mi Calm Calm - 0.00 in Snow Light Snow
8:50 AM 21.2 °F 13.6 °F 15.8 °F 80% 29.79 in 2.5 mi WNW 5.8 mph - 0.00 in Snow Light Snow
8:53 AM 21.0 °F 13.4 °F 16.0 °F 81% 29.85 in 2.5 mi Variable 5.8 mph - 0.00 in Snow Light Snow
9:03 AM 21.2 °F 12.6 °F 15.8 °F 80% 29.79 in 3.0 mi Variable 6.9 mph - 0.00 in Snow Light Snow
9:16 AM 21.2 °F 12.6 °F 15.8 °F 80% 29.79 in 7.0 mi Variable 6.9 mph - 0.00 in   Overcast
9:38 AM 21.2 °F 14.9 °F 15.8 °F 80% 29.79 in 10.0 mi Variable 4.6 mph - 0.00 in   Overcast
9:53 AM 23.0 °F 17.0 °F 14.0 °F 68% 29.85 in 10.0 mi Variable 4.6 mph - 0.00 in   Overcast
10:53 AM 23.0 °F 17.0 °F 12.9 °F 65% 29.87 in 10.0 mi Variable 4.6 mph - N/A   Overcast
11:20 AM 26.6 °F 20.0 °F 14.0 °F 59% 29.81 in 10.0 mi Variable 5.8 mph - N/A   Scattered Clouds
11:29 AM 24.8 °F 17.9 °F 12.2 °F 59% 29.81 in 10.0 mi Variable 5.8 mph - N/A   Mostly Cloudy
11:37 AM 26.6 °F 22.6 °F 12.2 °F 55% 29.81 in 10.0 mi Variable 3.5 mph - N/A   Scattered Clouds
11:53 AM 26.1 °F 21.9 °F 12.0 °F 55% 29.87 in 10.0 mi Variable 3.5 mph - N/A   Mostly Cloudy
12:00 PM 26.6 °F 21.2 °F 12.2 °F 55% 29.81 in 10.0 mi Variable 4.6 mph - N/A   Scattered Clouds
12:53 PM 28.0 °F 21.7 °F 10.9 °F 49% 29.89 in 10.0 mi Variable 5.8 mph - N/A   Scattered Clouds
1:53 PM 28.0 °F 21.7 °F 10.9 °F 49% 29.90 in 10.0 mi Variable 5.8 mph - N/A   Overcast
2:53 PM 27.0 °F 20.5 °F 10.9 °F 51% 29.92 in 10.0 mi Variable 5.8 mph - N/A   Overcast
3:53 PM 25.0 °F 18.1 °F 10.9 °F 55% 29.94 in 10.0 mi Variable 5.8 mph - N/A   Overcast
4:53 PM 23.0 °F 13.9 °F 14.0 °F 68% 29.98 in 3.0 mi NNW 8.1 mph - 0.00 in Snow Light Snow
5:00 PM 23.0 °F 17.0 °F 14.0 °F 68% 29.92 in 2.5 mi Variable 4.6 mph - 0.00 in Snow Light Snow
5:04 PM 24.8 °F 15.3 °F 12.2 °F 59% 29.92 in 4.0 mi North 9.2 mph - 0.00 in Snow Light Snow
5:42 PM 21.2 °F 14.9 °F 14.0 °F 74% 29.94 in 2.0 mi Variable 4.6 mph - 0.00 in Snow Light Snow
5:50 PM 21.2 °F 12.6 °F 15.8 °F 80% 29.95 in 1.0 mi Variable 6.9 mph - 0.00 in Snow Light Snow
5:53 PM 21.0 °F 11.4 °F 15.1 °F 78% 30.02 in 1.0 mi North 8.1 mph 16.1 mph 0.00 in Snow Light Snow
6:02 PM 21.2 °F 13.6 °F 14.0 °F 74% 29.96 in 2.0 mi Variable 5.8 mph - 0.00 in Snow Light Snow
6:07 PM 21.2 °F 12.6 °F 12.2 °F 68% 29.96 in 6.0 mi Variable 6.9 mph - 0.00 in Snow Light Snow
6:53 PM 21.0 °F 14.6 °F 10.9 °F 65% 30.05 in 10.0 mi Variable 4.6 mph - 0.00 in   Overcast
7:17 PM 19.4 °F 14.3 °F 12.2 °F 74% 29.99 in 2.0 mi Variable 3.5 mph - 0.00 in Snow Light Snow
7:26 PM 19.4 °F 12.8 °F 12.2 °F 74% 29.99 in 7.0 mi Variable 4.6 mph - 0.00 in Snow Light Snow
7:36 PM 19.4 °F 11.5 °F 12.2 °F 74% 30.00 in 6.0 mi Variable 5.8 mph - 0.00 in Snow Light Snow
7:53 PM 19.9 °F 14.9 °F 12.9 °F 74% 30.07 in 10.0 mi Variable 3.5 mph - 0.00 in   Overcast
8:00 PM 19.4 °F 12.8 °F 12.2 °F 74% 30.01 in 10.0 mi Variable 4.6 mph - N/A   Overcast
8:53 PM 19.0 °F 12.3 °F 14.0 °F 81% 30.09 in 2.0 mi Variable 4.6 mph - 0.00 in Snow Light Snow
9:04 PM 19.4 °F 14.3 °F 14.0 °F 80% 30.03 in 4.0 mi Variable 3.5 mph - 0.00 in Snow Light Snow
9:33 PM 19.4 °F 14.3 °F 15.8 °F 86% 30.04 in 2.0 mi Variable 3.5 mph - 0.00 in Snow Light Snow
9:41 PM 19.4 °F 14.3 °F 15.8 °F 86% 30.04 in 1.5 mi Variable 3.5 mph - 0.00 in Snow Light Snow
10:20 PM 19.4 °F 11.5 °F 14.0 °F 80% 30.05 in 5.0 mi Variable 5.8 mph - 0.00 in Snow Light Snow
10:31 PM 19.4 °F 9.5 °F 12.2 °F 74% 30.06 in 7.0 mi North 8.1 mph - 0.00 in Snow Light Snow
10:53 PM 19.0 °F 13.9 °F 12.0 °F 74% 30.13 in 10.0 mi Variable 3.5 mph - 0.00 in   Overcast
11:53 PM 18.0 °F - 10.9 °F 74% 30.14 in 10.0 mi Calm Calm - N/A   Mostly Cloudy